User: anonymous   Login
Location: Muenchen
(48.1800°N, 11.5800°E)
Time: 01:15:04
(UTC+02:00)
Language:

Cosmos 2233 Rocket - Orbit

View from above orbital plane
View from above orbital plane
View from above satellite
View from above satellite

Ground track
Ground track

The orbit data is extracted from the following two-line orbital elements,

1 22488U 93008B   16237.16096329  .00000012  00000-0 -36144-5 0  9996
2 22488  82.9433 299.4707 0024789 340.6177  75.0184 13.77699130183363
Epoch (UTC): 24 August 2016 03:51:47
Eccentricity: 0.0024789
inclination: 82.9433°
perigee height: 954 km
apogee height: 990 km
right ascension of ascending node: 299.4707°
argument of perigee: 340.6177°
revolutions per day: 13.77699130
mean anomaly at epoch: 75.0184°
orbit number at epoch: 18336

The dashed part of the orbit path shows where the satellite is in the earth's shadow,  

DLR